Regional Weather Roundup
Issued by NWS

Home | Current Version | Previous Version | Text Only | Print | Product List | Glossary Off
Versions: 1 2 3 4 5 6 7 8 9 10 11 12 13 14 15 16 17 18 19 20 21 22 23 24 25 26 27 28 29 30 31 32 33 34 35 36 37 38 39 40 41 42 43 44 45 46 47 48 49 50

382
ASUS43 KOAX 290502
RWRNE

WEATHER ROUNDUP FOR NEBRASKA
NATIONAL WEATHER SERVICE OMAHA NE
1200 AM CDT SAT APR 29 2017

NOTES: SATELLITE DATA IS BEING USED TO AUGMENT CLOUD COVER ABOVE
       12000 FEET.
       "FAIR" INDICATES FEW OR NO CLOUDS BELOW 12,000 FEET WITH NO
       SIGNIFICANT WEATHER AND/OR OBSTRUCTIONS TO VISIBILITY.

  * THESE STATIONS DO NOT REPORT WEATHER SUCH AS RAIN...SNOW OR FOG.

NEZ001>004-019>022-054>056-290600-
NEBRASKA PANHANDLE

CITY           SKY/WX    TMP DP  RH WIND       PRES   REMARKS
SCOTTSBLUFF    CLOUDY    34  32  92 NW6       30.12F WCI  29
ALLIANCE       CLOUDY    33  30  88 N9        30.09F WCI  25
CHADRON        CLOUDY    36  31  82 NE5       30.16F WCI  32
KIMBALL        CLOUDY    32  31  96 NE9       30.10S WCI  24
SIDNEY         CLOUDY    33  31  92 NE13      30.11R WCI  24
$$

NEZ057>060-069>072-079>082-290600-
SOUTHWEST NEBRASKA

CITY           SKY/WX    TMP DP  RH WIND       PRES   REMARKS
NORTH PLATTE   CLOUDY    39  35  86 N7        30.08F WCI  34
IMPERIAL       CLOUDY    36  32  85 NE12      30.09R WCI  28
LEXINGTON      CLOUDY    38  33  80 NE9       30.08R WCI  32
MCCOOK         CLOUDY    38  34  85 N15       30.07S WCI  29
OGALLALA       CLOUDY    38  33  83 N10       30.10R WCI  31
$$

NEZ005>010-023>029-035>040-094-290600-
NORTH CENTRAL NEBRASKA

CITY           SKY/WX    TMP DP  RH WIND       PRES   REMARKS
VALENTINE      CLOUDY    43  25  49 NE8       30.18R
AINSWORTH      CLOUDY    40  32  74 N6        30.15S
BROKEN BOW     CLOUDY    39  35  86 N9        30.09F WCI  33
O`NEILL        CLOUDY    41  32  70 N5        30.14R
ORD            CLOUDY    40  33  76 N8        30.09F WCI  34
THEDFORD       CLOUDY    41  32  71 N7        30.13F
$$

NEZ041-046>049-061>064-073>077-083>087-290600-
SOUTH CENTRAL NEBRASKA

CITY           SKY/WX    TMP DP  RH WIND       PRES   REMARKS
GRAND ISLAND   CLOUDY    39  38  96 NE9       30.09S WCI  33
AURORA         CLOUDY    39  38  94 NE8       30.08S WCI  34
HASTINGS       CLOUDY    39  37  92 NE14      30.07R FOG     WCI  31
HEBRON         CLOUDY    40  38  92 NE12      30.04F WCI  33
HOLDREGE       CLOUDY    37  36  93 N13       30.06F WCI  29
KEARNEY *      CLOUDY    39  34  81 N10       30.09R WCI  32
YORK           CLOUDY    39  39 100 NE16      30.06F WCI  30
$$

NEZ011>018-030>034-042>045-290600-
NORTHEAST NEBRASKA

CITY           SKY/WX    TMP DP  RH WIND       PRES   REMARKS
NORFOLK        CLOUDY    43  32  65 NE7       30.10R
ALBION         CLOUDY    42  34  72 N6        30.09F
BLAIR          CLOUDY    42  39  88 N9        30.07R
FREMONT        CLOUDY    43  39  86 N5        30.08S
TEKAMAH        CLOUDY    43  39  86 N7        30.11R
WAYNE          CLOUDY    42  37  82 NE5       30.11R
$$

NEZ050>053-065>068-078-088>093-290600-
SOUTHEAST NEBRASKA

CITY           SKY/WX    TMP DP  RH WIND       PRES   REMARKS
LINCOLN        CLOUDY    42  39  89 NE12      30.06F
OMAHA EPPLEY   CLOUDY    44  37  76 N9        30.08R
BEATRICE       CLOUDY    42  40  95 NE13      30.03F
FALLS CITY     CLOUDY    44  42  93 N8        30.02R
NEBRASKA CITY  CLOUDY    42  40  96 NE10      30.05R
PLATTSMOUTH    CLOUDY    42  37  84 N8        30.06S
$$

NEZ044-045-051>053-067-290600-
OMAHA AREA

CITY           SKY/WX    TMP DP  RH WIND       PRES   REMARKS
OMAHA EPPLEY   CLOUDY    44  37  76 N9        30.08R
BLAIR          CLOUDY    42  39  88 N9        30.07R
FREMONT        CLOUDY    43  39  86 N5        30.08S
MILLARD        CLOUDY    45  39  81 N5        30.07F
OFFUTT AFB     CLOUDY    43  38  82 N8        30.06R
PLATTSMOUTH    CLOUDY    42  37  84 N8        30.06S
WAHOO          CLOUDY    42  39  90 N7        30.07F
$$




USA.gov is the U.S. government's official web portal to all federal, state and local government web resources and services.